Other Public Products
Issued by NWS Charleston, SC

Home | Current Version | Previous Version | Text Only | Print | Product List | Glossary On
Versions: 1 2 3 4 5 6 7 8 9 10 11 12 13 14 15 16 17 18 19 20 21 22 23 24 25 26 27 28 29 30 31 32 33 34 35 36 37 38 39 40 41 42 43 44 45 46 47 48 49 50
537
FPUS82 KCHS 162227
OPUCHS

TEST...KCHS/KSAV Gateway Observations...TEST
National Weather Service Charleston SC
600 PM EDT WED AUG 16 2017

NOTE: "fair" indicates few or no clouds below 12,000 feet with no
significant weather and/or obstructions to visibility.

SCZ050-WAZ558-NCZ071-TXZ119-213-PAZ071-DCZ001-FLZ074-172-MI076-
NYZ176-178-MAZ016-IL014-TNZ027-NJZ106-GAZ044-MD014-162300-

...Gateway Observations for Charleston International...

CITY           SKY/WX    TMP DP  RH WIND       PRES   REMARKS
Chas Airport   MOSUNNY   95  73  48 W9        29.95F HX 104
Seattle        MOSUNNY   75  50  41 W6        30.11S
Charlotte      PTSUNNY   91  72  53 W5        30.01S HX  98
Dallas DFW     CLOUDY    95  73  48 S14       29.85F HX 104
Dallas Love    CLOUDY    94  72  48 S14       29.87S HX 102
Philladelphia  MOSUNNY   87  62  43 NW10      29.96S
Wash National  PTSUNNY   88  66  48 N8        29.98R HX  90
Baltimore      MOSUNNY   86  69  56 NE9G17    29.97S HX  90
Miami          MOSUNNY   91  72  53 SE9       30.04S HX  98
Detroit        MOSUNNY   82  60  47 S9        30.01F
Newark         MOSUNNY   84  57  39 N12G22    29.95S
Laguardia      PTSUNNY   85  61  44 NW7       29.94S
J F K          PTSUNNY   84  64  50 VRB5      29.95F
Boston Logan   PTSUNNY   83  53  35 NW15G21   29.91R
Ft. Lauderdale MOSUNNY   89  73  59 SE14      30.03F HX  97
Chicago O`Hare LGT RAIN  83  69  62 S18G26    29.89R
Chicago Midway LGT RAIN  84  70  62 S14       29.90R
Houston Bush   CLOUDY    93  75  55 S13       29.92F HX 104
Houston Hobby  PTSUNNY   93  74  53 S13       29.93S HX 103
Nashville      MOSUNNY   90  73  57 S12       29.98S HX  98
Atlanta        MOSUNNY   91  72  53 W9        30.02F HX  98

$$

GAZ044-118-TXZ119-213-NCZ071-DCZ001-MDZ014-506-PAZ021-071-NJZ106-
NYZ176-178-MAZ106-OHZ011-021-055-MIZ076-KYZ091-ILZ014-INZ047-
MNZ060-ONZ431-162300-

...Gateway Observations for Savannah International...

CITY           SKY/WX    TMP DP  RH WIND       PRES   REMARKS
Savannah Arpt  MOSUNNY   96  75  50 W7        29.97F HX 108
Atlanta        MOSUNNY   91  72  53 W9        30.02F HX  98
Charlotte      PTSUNNY   91  72  53 W5        30.01S HX  98
Dallas DFW     CLOUDY    95  73  48 S14       29.85F HX 104
Houston Bush   CLOUDY    93  75  55 S13       29.92F HX 104
Wash National  PTSUNNY   88  66  48 N8        29.98R HX  90
Wash Dulles    PTSUNNY   86  70  58 NE6       29.98S HX  90
Baltimore      MOSUNNY   86  69  56 NE9G17    29.97S HX  90
Philadelphia   MOSUNNY   87  62  43 NW10      29.96S
Newark         MOSUNNY   84  57  39 N12G22    29.95S
Laguardia      PTSUNNY   85  61  44 NW7       29.94S
J F K          PTSUNNY   84  64  50 VRB5      29.95F
Boston         PTSUNNY   83  53  35 NW15G21   29.91R
Pittsburg      MOSUNNY   84  59  42 N6        30.04F
Akron          MOSUNNY   85  59  41 NE6       30.03F
Cleveland      MOSUNNY   83  56  39 NE15      30.04F
Cincinnati     MOSUNNY   88  71  57 SW7       29.96F HX  94
Columbus       MOSUNNY   87  67  51 W3        29.97S
Detroit        MOSUNNY   82  60  47 S9        30.01F
Chicago O`Hare LGT RAIN  83  69  62 S18G26    29.89R
Minneapolis    CLOUDY    78  68  71 E10       29.76F
Indianapolis   CLOUDY    87  71  58 SW9       29.94S HX  93
Toronto Canada MOSUNNY   72  59  64 SE8       30.05F

$$




USA.gov is the U.S. government's official web portal to all federal, state and local government web resources and services.